www.pogodaiklimat.ru

Погода и климат >> Архив погоды >> Беларусь >> Мозырь


АРХИВ ПОГОДЫ в Мозыре

Время (UTC), дата Ветер
(напр.,м/с)
 
Видим.   Явления Облачность Т
(С)
Тd
(С)
f
(%)
Тe
(С)
Тes
(С)
Комфортность P
(гПа)
Po
(гПа)
Тmin
(С)
Tmax
(С)
R
(мм)
R24
(мм)
S
(см)
06 17.02 З 2 8000 м дымка 3/0
[Ci fib]
0.0 -1.2 92 -4 -3 тепло 1017.4 993.8 -0.1 1
09 17.02 З 3 20 км 6/6 870 м
[Sc]
+3.2 -0.9 74 -1 +1 тепло 1017.3 994.0
12 17.02 СЗ 4 20 км 10/10 600 м
[Sc]
+4.9 +0.5 73 +1 +1 тепло 1017.0 993.8
15 17.02 СЗ 3 20 км 10/10 570 м
[Sc]
+4.6 +0.7 76 +1 +1 тепло 1017.2 993.9
18 17.02 СЗ 4
{10}
10 км 8/8 500 м
[Sc]
+3.6 +0.4 80 -1 -1 тепло 1018.7 995.4 +5.3
21 17.02 СЗ 2 10 км ясно +1.6 0.0 89 -2 -2 тепло 1020.0 996.5
00 18.02 СЗ 2 7000 м дымка ясно +0.3 -0.5 94 -3 -3 тепло 1021.4 997.7
03 18.02 С 1 4000 м дымка ясно -1.2 -1.8 96 -4 -4 по сезону 1022.2 998.3
06 18.02 штиль 0 4000 м дымка 6/0
[Ci fib]
-2.4 -3.0 96 -4 -3 тепло 1023.8 999.8 -2.5
09 18.02 СЗ 1 20 км 3/0
[Ci fib]
+1.3 -3.0 73 -0 +4 тепло 1025.4 1001.6
12 18.02 СЗ 2 20 км 6/0
[Ci sp]
+3.9 -6.8 46 +2 +5 тепло 1025.2 1001.6
15 18.02 штиль 0 20 км 3/0
[Ci sp]
+2.6 -7.9 46 +2 +2 тепло 1024.8 1001.1
18 18.02 штиль 0 10 км ясно -1.1 -8.2 58 -2 -2 тепло 1025.6 1001.6 +5.0
21 18.02 ЮВ 1 10 км ясно -0.3 -8.7 53 -2 -2 тепло 1025.9 1001.9
00 19.02 Ю 1 10 км ясно -2.8 -7.7 69 -5 -5 по сезону 1026.2 1002.0
03 19.02 Ю 1 10 км ясно -3.5 -7.3 75 -6 -6 по сезону 1024.8 1000.6
06 19.02 ЮВ 1 15 км ясно -3.6 -7.4 75 -6 -5 по сезону 1023.9 999.7 -3.9
09 19.02 Ю 2 20 км 3/0
[Ac trans]
+3.4 -4.6 56 +1 +5 тепло 1021.6 998.1
12 19.02 Ю 3 20 км 4/0
[Ac trans Ci sp]
+7.8 -0.6 55 +5 +8 тепло 1018.5 995.4
15 19.02 Ю 2 20 км 5/0
[Ac trans Ci fib]
+6.3 +0.2 65 +4 +4 тепло 1016.1 992.9
18 19.02 Ю 2 10 км 3/0
[Ci fib]
+3.6 +0.6 81 +1 +1 тепло 1014.5 991.1 +8.0
21 19.02 Ю 1 10 км ясно +2.1 +0.4 88 0 0 тепло 1013.1 989.6
00 20.02 Ю 1 6000 м дымка ясно +0.8 +0.3 96 -1 -1 тепло 1011.2 987.7
03 20.02 штиль 0 2800 м дымка ясно +0.3 +0.2 99 -1 -1 тепло 1010.4 986.8
06 20.02 З 1 3100 м в посл. час ливневой дождь 10/10 960 м
[Sc]
+1.7 +1.6 99 -0 -0 тепло 1010.6 987.2 0.0 1
09 20.02 ЮЗ 1 8000 м дымка 10/10 600 м
[Sc]
+4.1 +2.8 91 +3 +3 тепло 1010.5 987.3
12 20.02 З 2 20 км 8/6 630 м
[Sc Ac und]
+6.8 +2.1 72 +5 +6 тепло 1010.0 987.0
15 20.02 З 2
{11}
20 км 6/6 1320 м
[Sc]
+4.6 +0.3 74 +2 +2 тепло 1010.1 986.9
18 20.02 З 1 10 км 8/6 1140 м
[Sc Ac und]
+3.5 +0.4 80 +2 +2 тепло 1010.2 986.9 +6.8
21 20.02 СЗ 3 10 км 8/0
[Ac trans]
+4.1 -1.4 67 +1 +1 тепло 1008.3 985.3
00 21.02 З 2
{11}
10 км 8/5 1050 м
[Sc Ac und]
+1.2 -3.0 74 -2 -2 тепло 1011.5 988.0
03 21.02 СЗ 3
{14}
10 км 9/8 1140 м
[Sc Ac und]
-0.6 -7.0 62 -5 -5 по сезону 1013.1 989.4
06 21.02 СЗ 3
{15}
20 км 8/8 1200 м
[Sc]
-2.0 -8.5 61 -7 -6 по сезону 1014.7 990.8 -2.0
09 21.02 З 4-10
{12}
20 км 8/8 1020 м
[Sc]
-1.2 -8.3 58 -6 -6 по сезону 1016.2 992.4
12 21.02 СЗ 4
{12}
20 км 8/6 1230 м
[Sc Ci fib]
-0.3 -9.5 50 -5 -4 по сезону 1016.5 992.7
15 21.02 СЗ 2
{11}
20 км 8/0
[Ac trans Ci fib]
-1.5 -9.4 55 -5 -5 по сезону 1017.5 993.6
18 21.02 СЗ 3 10 км 3/0
[Ci fib]
-3.0 -10.8 55 -8 -8 по сезону 1018.9 994.8 +0.5
21 21.02 С 1 10 км 8/0
[Ac trans Ci fib]
-4.3 -11.7 56 -6 -6 по сезону 1020.0 995.8
00 22.02 С 4 10 км 9/0
[Cs]
-5.4 -13.2 54 -11 -11 по сезону 1020.8 996.5
03 22.02 С 4
{10}
10 км 3/0
[Ci fib]
-7.3 -15.2 53 -14 -14 прохладно 1022.3 997.8
06 22.02 С 3 20 км ясно -8.2 -14.2 62 -14 -13 прохладно 1023.9 999.2 -8.4
09 22.02 С 5
{12}
20 км 6/6 1000 м
[Sc]
-7.2 -15.2 53 -14 -13 холодно 1025.1 1000.5
12 22.02 С 6-12
{11}
20 км 8/8 1200 м
[Sc]
-5.6 -15.3 46 -13 -13 очень
холодно
1025.6 1001.1
15 22.02 С 2
{12}
18 км в посл. час ливневой снег 9/8 1000 м
[Sc Ac und]
-6.8 -9.2 83 -11 -11 прохладно 1028.3 1003.7
18 22.02 С 5-11
{11}
10 км {ливн. осадки} 10/6 900 м
[Sc Ac As]
-5.2 -14.2 49 -12 -12 прохладно 1031.4 1006.8 -4.8 0.0
21 22.02 С 5
{11}
10 км 6/0
[Ac und]
-6.1 -14.4 52 -13 -13 прохладно 1034.0 1009.3
00 23.02 С 3 10 км ясно -7.3 -13.6 61 -13 -13 прохладно 1036.5 1011.6
03 23.02 С 3 10 км ясно -8.2 -12.9 69 -14 -14 прохладно 1038.7 1013.7
06 23.02 С 2 20 км 3/0
[Ci fib]
-8.6 -13.1 70 -13 -12 прохладно 1040.7 1015.6 -8.9
09 23.02 С 2 20 км 3/0
[Ci fib]
-4.8 -12.8 53 -9 -4 по сезону 1041.6 1016.8
12 23.02 С 2 20 км 8/0
[Cs]
-1.6 -14.1 38 -5 -1 по сезону 1040.5 1016.1
15 23.02 СЗ 1 14 км 9/0
[Ac As]
-1.8 -13.9 39 -3 -3 по сезону 1039.4 1015.0
18 23.02 З 1 10 км 10/0
[Ac As]
-2.1 -13.9 40 -3 -3 по сезону 1038.9 1014.5 -0.9
21 23.02 З 2 10 км 9/0
[Ac und]
-2.1 -13.9 40 -5 -5 по сезону 1037.1 1012.7
00 24.02 З 2 10 км 9/9 1110 м
[Sc]
-2.3 -10.6 53 -6 -6 по сезону 1035.3 1010.9
03 24.02 З 1 10 км 10/10 1140 м
[Sc]
-2.5 -9.8 57 -4 -4 по сезону 1033.4 1009.0

 

Местоположение метеостанции Мозырь (Гомельская область, Беларусь): широта 52.04 долгота 29.19 высота над уровнем моря 190 м.

В архиве по умолчанию представлена погода в Мозыре за последнюю неделю. Архивные данные за месяц целиком и за предыдущие месяцы, начиная с января 2011 года, Вы можете получить, выбрав интересующий диапазон дат из раскрывающегося списка и нажав кнопку "Ввод!".


*Определитесь, кто Вы:
робот инопланетянин человек

Внимание! Время в таблицах - всемирное. Для получения местного времени необходимо прибавить поправку, которая равна 3 ч.

Смотрите также архив погоды в соседних городах и на ближайших метеорологических станциях:

Погода в Василевичах (Гомельская область, Беларусь) (50 км)
Погода в Октябре (Гомельская область, Беларусь) (69 км)
Погода в Брагине (Гомельская область, Беларусь) (78 км)
Погода в Овруче (Житомирская область, Украина) (85 км)
Погода в Житковичах (Гомельская область, Беларусь) (92 км)
Погода в Чернобыле (Киевская область, Украина) (111 км)
Погода в Жлобине (Гомельская область, Беларусь) (111 км)
Погода в Коростени (Житомирская область, Украина) (127 км)
Погода в Гомеле (Гомельская область, Беларусь) (127 км)
Погода в Бобруйске (Могилевская область, Беларусь) (130 км)

Пояснения к столбцам:

Ветер - указаны скорость ветра в м/с - средняя за 10 мин, порывы в срок и между сроками (в фигурных скобках) и направление, откуда дует ветер: С - северный, СВ - северо-восточный, В - восточный, ЮВ - юго-восточный, Ю - южный, ЮЗ - юго-западный, З - западный, СЗ - северо-западный.
Видимость - горизонтальная дальность видимости в метрах или километрах. При видимости от 1 до 10 км при отсутствии осадков обычно наблюдается дымка, при ухудшении видимости до 1 км и менее - туман. В сухую погоду видимость может ухудшаться дымом, пылью или мглою.
Явления - указаны атмосферные явления, наблюдавшиеся в срок или в последний час перед сроком; фигурными скобками обозначены явления, наблюдавшиеся между сроками (за 1-3 часа до срока); квадратными скобками обозначены град или гололедные отложения с указанием их диаметра в мм.
Облачность - указаны через наклонную черту общая и нижняя облачность в баллах и высота нижней границы облаков в метрах; квадратными скобками обозначены формы облаков: Ci - перистые, Cs - перисто-слоистые, Cc - перисто-кучевые, Ac - высококучевые, As - высокослоистые, Sc - слоисто-кучевые, Ns - слоисто-дождевые, Cu - кучевые, Cb - кучево-дождевые. Подробнее классификацию облаков см. в Атласе облаков (PDF).
T - Температура воздуха - температура, измеренная на высоте 2 м над землей.
Td - Температура точки росы - температура, при понижении до которой содержащийся в воздухе водяной пар достигнет насыщения.
f - Относительная влажность воздуха - влажноcть воздуха, измеренная на высоте 2 м над землей.
Te - Эффективная температура - температура, которую ощущает одетый по сезону человек в тени. Характеристика душности погоды. При расчете учитывается влияние влажности воздуха и скорости ветра на теплоощущения человека.
Tes - Эффективная температура на солнце - температура, которую ощущает человек, с поправкой на солнечный нагрев. Характеристика знойности погоды. Зависит от высоты солнца над горизонтом, облачности и скорости ветра. Ночью, в пасмурную погоду, а также при ветре 12 м/с и более поправка равна нулю.
P - Атмосферное давление - приведенное к уровню моря атмосферное давление.
Po - Атмосферное давление - измеренное на уровне метеостанции атмосферное давление.
Tmin - Минимальная температура - минимум температуры воздуха на высоте 2 м над землей.
Tmax - Максимальная температура - максимум температуры воздуха на высоте 2 м над землей.
R - Количество осадков - Количество выпавших осадков за период времени, мм. При наведении курсора мыши на число - период времени, за который выпало указанное количество осадков.
R24 - Количество осадков - Количество выпавших осадков за 24 часа, мм.
S - Снежный покров - Высота снежного покрова, см. При наведении курсора мыши на число - состояние снежного покрова и степень покрытия местности в баллах.